Powrót do katalogu

STARLINK-3400

AktywnyŁącznośćVLEO
NORAD 51128·PAYLOAD·🇺🇸 United States

Wystrzelony Jan 19, 2022 z Cape Canaveral Space Force Station

Loading…

Następne Przeloty (najbliższe 24 godziny)

TLE

ŚwieżeSource: CelesTrak SupGP

Epoka: Sep 15, 2026, 02:07 UTC

1 51128C 22005AA  26258.08868056  .00013716  00000+0  39270-3 0  2589
2 51128  53.1604 163.6026 0001132  79.4139   4.8542 15.35370968    13

Śledź STARLINK-3400 w czasie rzeczywistym z AllMySat

Download on the App Store